GSAT0219 (GALILEO 23)

Last updated on Wed Sep 17 2025 00:02:35 GMT+0000 (Coordinated Universal Time)

1 43566U 18060C 25258.98363863 -.00000107 00000+0 00000+0 0 9994 2 43566 57.2517 349.1941 0003379 267.6081 92.3857 1.70476146 44510
UTC large
Height (km)
Speed (km/s)
/
Latitude / Longitude
Inclination (degrees)
Orbital Period (minutes)
Azimuth
Elevation
Range (km)
Doppler Factor

Next 0 passes for location: London (51.5072 / 0.1276)

Sorry there are no passes over London.